Shreveport Downtown, LA

4:36 PM CST on November 19, 2017 (GMT -0600)
Shreveport Downtown

Weather History for KDTN - April, 2014

Change the Weather History Date:

Thursday, April 17, 2014

  Actual Average (KBAD) Record (KBAD)
Temperature  
Mean Temperature 54 °F -  
Max Temperature 68 °F 75 °F 89 °F (2006)
Min Temperature 41 °F 54 °F 41 °F (2011)
Degree Days  
Heating Degree Days 12    
Growing Degree Days 4 (Base 50)    
Moisture  
Dew Point 45 °F    
Average Humidity 71    
Maximum Humidity 93    
Minimum Humidity 51    
Precipitation  
Precipitation 0.00 in - - ()
Sea Level Pressure  
Sea Level Pressure 30.16 in    
Wind  
Wind Speed 3 mph (East)    
Max Wind Speed 12 mph    
Max Gust Speed -    
Visibility 10 miles    
Events      
Averages and records for this station are not official NWS values.
T = Trace of Precipitation, MM = Missing Value Source: NWS Daily Summary

Daily Weather History Graph

Daily Weather History Graph

Search for Another Location

Airport or City:

Trip Planner

Search our weather history database for the weather conditions in past years. The results will help you decide how hot, cold, wet, or windy it might be!

Date:

Astronomy

Apr. 17, 2014 Rise Set
Actual Time 6:43 AM CDT 7:46 PM CDT
Civil Twilight 6:17 AM CDT 8:11 PM CDT
Nautical Twilight 5:47 AM CDT 8:41 PM CDT
Astronomical Twilight 5:16 AM CDT 9:12 PM CDT
Moon 10:25 PM CDT (4/17) 8:21 AM CDT (4/17)
Length of Visible Light 13h 53m
Length of Day
13h 03m
Waning Gibbous, 93% of the Moon is Illuminated
Apr 17
Waning Gibbous
Apr 22
Last Quarter
Apr 29
New
May 6
First Quarter
May 14
Full

Hourly Weather History & Observations

Time (CDT) Temp. Windchill Dew Point Humidity Pressure Visibility Wind Dir Wind Speed Gust Speed Precip Events Conditions
12:53 AM 46.0 °F 44.8 °F 39.9 °F 79% 30.13 in 10.0 mi East 3.5 mph - N/A   Clear
1:53 AM 45.0 °F - 39.0 °F 80% 30.13 in 10.0 mi Calm Calm - N/A   Clear
2:53 AM 42.1 °F - 39.0 °F 89% 30.14 in 10.0 mi Calm Calm - N/A   Clear
3:53 AM 44.1 °F - 39.9 °F 85% 30.14 in 10.0 mi Calm Calm - N/A   Clear
4:53 AM 41.0 °F - 39.0 °F 93% 30.14 in 10.0 mi Calm Calm - N/A   Clear
5:53 AM 42.1 °F - 39.9 °F 92% 30.14 in 10.0 mi Calm Calm - N/A   Clear
6:53 AM 43.0 °F - 39.9 °F 89% 30.17 in 10.0 mi Calm Calm - N/A   Clear
7:53 AM 46.9 °F - 43.0 °F 86% 30.19 in 10.0 mi Calm Calm - N/A   Mostly Cloudy
8:53 AM 51.1 °F - 45.0 °F 80% 30.20 in 10.0 mi East 3.5 mph - N/A   Overcast
9:53 AM 55.9 °F - 46.9 °F 72% 30.19 in 10.0 mi East 5.8 mph - N/A   Overcast
10:53 AM 59.0 °F - 48.0 °F 67% 30.21 in 10.0 mi East 11.5 mph - N/A   Mostly Cloudy
12:53 PM 62.1 °F - 46.0 °F 56% 30.20 in 10.0 mi Variable 5.8 mph - N/A   Mostly Cloudy
1:53 PM 62.1 °F - 45.0 °F 53% 30.19 in 10.0 mi East 8.1 mph - N/A   Partly Cloudy
2:53 PM 64.0 °F - 46.9 °F 54% 30.16 in 10.0 mi ENE 4.6 mph - N/A   Clear
3:53 PM 64.0 °F - 46.0 °F 52% 30.15 in 10.0 mi ENE 5.8 mph - N/A   Mostly Cloudy
4:53 PM 66.9 °F - 48.0 °F 51% 30.14 in 10.0 mi Variable 3.5 mph - N/A   Clear
5:53 PM 66.0 °F - 48.0 °F 52% 30.12 in 10.0 mi Variable 6.9 mph - N/A   Clear
6:53 PM 64.9 °F - 46.9 °F 52% 30.14 in 10.0 mi East 6.9 mph - N/A   Clear
7:53 PM 62.1 °F - 48.0 °F 60% 30.14 in 10.0 mi East 3.5 mph - N/A   Clear
8:53 PM 61.0 °F - 48.0 °F 62% 30.17 in 10.0 mi Calm Calm - N/A   Mostly Cloudy
9:53 PM 59.0 °F - 50.0 °F 72% 30.19 in 10.0 mi Calm Calm - N/A   Overcast
10:53 PM 57.9 °F - 50.0 °F 75% 30.20 in 10.0 mi Calm Calm - N/A   Clear
11:53 PM 57.0 °F - 48.9 °F 74% 30.18 in 10.0 mi Calm Calm - N/A   Clear